AirNav   Pilot Hours Calculator
 
 1581 users online  

2CA4 Blackinton Airport
Valley Center, California, USA

GOING TO VALLEY CENTER?


FAA INFORMATION EFFECTIVE 16 JUNE 2022

Location

FAA Identifier: 2CA4
Lat/Long: 33-15-32.1260N 117-05-32.1120W
33-15.535433N 117-05.535200W
33.2589239,-117.0922533
(estimated)
Elevation: 1156 ft. / 352 m (estimated)
Variation: 13E (1985)
From city: 4 miles NW of VALLEY CENTER, CA
Time zone: UTC -7 (UTC -8 during Standard Time)
Zip code: 92082

Airport Operations

Airport use: Private use. Permission required prior to landing
Activation date: 10/1966
Control tower: no
ARTCC: LOS ANGELES CENTER
FSS: SAN DIEGO FLIGHT SERVICE STATION
Attendance: UNATNDD
Wind indicator: yes
Segmented circle: yes

Airport Communications

WX AWOS-3P at L18 (10 nm NW): 118.425 (760-723-6073)
WX ASOS at CRQ (12 nm SW): PHONE 760-930-0864
WX ASOS at OKB (13 nm W): 127.8 (760-439-9683)
WX ASOS at RNM (16 nm SE): PHONE 760-789-7699
WX AWOS-3 at F70 (19 nm N): 119.025 (951-696-1018)

Nearby radio navigation aids

VOR radial/distance  VOR name  Freq  Var
OCNr071/16.4OCEANSIDE VORTAC115.3015E
JLIr271/26.4JULIAN VORTAC114.0015E
MZBr358/29.4MISSION BAY VORTAC117.8015E
HDFr157/(31.4)HOMELAND VOR112.0514E
PGYr338/39.3POGGI VORTAC116.4514E

Airport Services

Runway Information

Runway 17/35

Dimensions: 2200 x 50 ft. / 671 x 15 m
Surface: asphalt, in good condition
RUNWAY 17  RUNWAY 35
Traffic pattern: leftleft
Displaced threshold: no130 ft.
Markings: nonprecisionnonprecision
Obstructions: noneplines road

Airport Ownership and Management from official FAA records

Ownership: Privately-owned
Owner: BLACKINTON AIRPORT HOA
30114 AIRFLIGHT DRIVE
VALLEY CENTER, CA 92082
Phone (760) 533-6077
Manager: PETER GORMAN
30210 AIRFLIGHT DRIVE
VALLEY CENTER, CA 92082
Phone (760) 533-6077

Airport Operational Statistics

Aircraft based on the field: 12
Single engine airplanes: 12
    

Additional Remarks

LAND RWY 35, TKOF RWY 17.
FOR CD CTC LOS ANGELES ARTCC AT 661-575-2079.

Instrument Procedures

There are no published instrument procedures at 2CA4.

Some nearby airports with instrument procedures:

L18 - Fallbrook Community Airpark (10 nm NW)
KCRQ - Mc Clellan-Palomar Airport (12 nm SW)
KOKB - Bob Maxwell Memorial Airfield (13 nm W)
KNFG - Camp Pendleton MCAS (Munn Field) Airport (13 nm W)
KRNM - Ramona Airport (16 nm SE)
F70 - French Valley Airport (19 nm N)
 
Loc | Ops | Rwys | IFR | FBO | Links
Com | Nav | Svcs | Stats | Notes
Area around 2CA4 (Blackinton Airport)
 
Road maps at: MapQuest Bing Google
 
Aerial photo
WARNING: Photo may not be current or correct
Aerial photo of 2CA4 (Blackinton Airport)
Photo by Susan Wilson
Photo taken 28-Feb-2011
looking north.

Do you have a better or more recent aerial photo of Blackinton Airport that you would like to share? If so, please send us your photo.

 
Sectional chart

 
Airport distance calculator
Flying to Blackinton Airport? Find the distance to fly.

From to 2CA4

Sunrise and sunset
Times for 07-Jul-2022
 Local
(UTC-7)
 Zulu
(UTC)
Morning civil twilight05:1812:18
Sunrise05:4612:46
Sunset20:0003:00
Evening civil twilight20:2903:29

Current date and time
Zulu (UTC)  07-Jul-2022 18:11:38
Local (UTC-7)  07-Jul-2022 11:11:38
 
METAR
KL18 
10nm NW 
071755Z AUTO 20005G08KT 10SM CLR 24/16 A2999 RMK AO2
KNFG 
12nm W 
071752Z 24007KT 10SM CLR 23/16 A2997 RMK AO2 SLP148 T02330161 10233 20178 50000 $
KCRQ 
12nm SW 
071753Z 24008KT 10SM OVC010 20/16 A2998 RMK AO2 SLP149 T02000161 10200 20178 51006
KOKB 
13nm W 
071752Z AUTO 25007KT 10SM SCT013 22/16 A2997 RMK AO2 SLP149 T02220161 10228 20178 51004
KRNM 
16nm SE 
071753Z 27009KT 10SM CLR 27/15 A2998 RMK AO2 SLP139 T02720150 10278 20122 53001
KNXF 
18nm W 
071756Z AUTO 26015G34KT 10SM 21/17 A2998 RMK AO2 PK WND 22047/1754 SLP236 T02110172 10217 20172 51003 $
KF70 
19nm N 
071755Z AUTO 22006KT 10SM CLR 29/13 A2997 RMK AO2
TAF
KNFG 
12nm W 
0715/0815 VRB05KT 9999 OVC008 QNH2996INS BECMG 0717/0719 21010KT 9999 FEW015 QNH2993INS BECMG 0802/0804 VRB05KT 9999 OVC010 QNH2997INS T16/0812Z T27/0721Z
KCRQ 
12nm SW 
071728Z 0718/0818 25009KT P6SM SCT010 TEMPO 0722/0802 BKN009 FM080200 VRB04KT P6SM OVC007 FM081700 25005KT P6SM SCT010
NOTAMs
Click for the latest NOTAMs
NOTAMs are issued by the DoD/FAA and will open in a separate window not controlled by AirNav.

 

 
 

Would you like to see your business listed on this page?

 If your business provides an interesting product or service to pilots, flight crews, aircraft, or users of the Blackinton Airport, you should consider listing it here.  To start the listing process, click on the button below
 
Add a business
 

Other Pages about Blackinton Airport

Update a link
 
Copyright © AirNav, LLC. All rights reserved. Privacy Policy  Contact